Regional Weather Roundup
Issued by NWS

Home | Current Version | Previous Version | Text Only | Print | Product List | Glossary On
Versions: 1 2 3 4 5 6 7 8 9 10 11 12 13 14 15 16 17 18 19 20 21 22 23 24 25 26 27 28 29 30 31 32 33 34 35 36 37 38 39 40 41 42 43 44 45 46 47 48 49 50
000
ASUS43 KOAX 280110
RWRNE

WEATHER ROUNDUP FOR NEBRASKA
NATIONAL WEATHER SERVICE OMAHA NE
800 PM CDT THU APR 27 2017

NOTES: SATELLITE DATA IS BEING USED TO AUGMENT CLOUD COVER ABOVE
       12000 FEET.
       "FAIR" INDICATES FEW OR NO CLOUDS BELOW 12,000 FEET WITH NO
       SIGNIFICANT WEATHER AND/OR OBSTRUCTIONS TO VISIBILITY.

  * THESE STATIONS DO NOT REPORT WEATHER SUCH AS RAIN...SNOW OR FOG.

NEZ001>004-019>022-054>056-280200-
NEBRASKA PANHANDLE

CITY           SKY/WX    TMP DP  RH WIND       PRES   REMARKS
SCOTTSBLUFF    CLOUDY    44  41  89 E13       29.55S
ALLIANCE       LGT RAIN  43  41  93 SE7       29.60R
CHADRON        LGT RAIN  43  40  89 NE12      29.62R
KIMBALL        CLOUDY    40  38  93 E12       29.55R WCI  33
SIDNEY         RAIN      39  36  89 NW13      29.61R FOG     WCI  31
$$

NEZ057>060-069>072-079>082-280200-
SOUTHWEST NEBRASKA

CITY           SKY/WX    TMP DP  RH WIND       PRES   REMARKS
NORTH PLATTE   LGT RAIN  48  41  76 SE14      29.61R
IMPERIAL       LGT RAIN  46  41  82 E16       29.56R
LEXINGTON      CLOUDY    48  40  73 SE12G22   29.64R
MCCOOK         CLOUDY    49  41  74 E17       29.58R
OGALLALA       CLOUDY    49  39  67 E12G18    29.58S
$$

NEZ005>010-023>029-035>040-094-280200-
NORTH CENTRAL NEBRASKA

CITY           SKY/WX    TMP DP  RH WIND       PRES   REMARKS
VALENTINE      CLOUDY    52  30  43 E12       29.66R
AINSWORTH      CLOUDY    50  36  59 E9        29.67R
BROKEN BOW     CLOUDY    49  35  58 E12       29.64S
O`NEILL        CLEAR     50  35  54 SE5       29.70R
ORD            CLOUDY    48  40  73 E6        29.67R
THEDFORD       CLOUDY    49  37  63 E12       29.65S
$$

NEZ041-046>049-061>064-073>077-083>087-280200-
SOUTH CENTRAL NEBRASKA

CITY           SKY/WX    TMP DP  RH WIND       PRES   REMARKS
GRAND ISLAND   PTCLDY    53  37  54 SE9       29.68S
AURORA         CLOUDY    53  34  47 SE12      29.69R
HASTINGS       LGT RAIN  48  42  80 S14G23    29.70R
HEBRON         LGT RAIN  48  44  88 SE7       29.71S
HOLDREGE       DRIZZLE   46  42  88 SE16G23   29.64F
KEARNEY *      CLOUDY    46  39  76 S15       29.67R
YORK           CLOUDY    54  37  54 SE8       29.70S
$$

NEZ011>018-030>034-042>045-280200-
NORTHEAST NEBRASKA

CITY           SKY/WX    TMP DP  RH WIND       PRES   REMARKS
NORFOLK        MOCLDY    51  34  52 E5        29.71R
ALBION         CLOUDY    53  36  50 SE6       29.70R
BLAIR          MOCLDY    55  34  45 SE3       29.72R
FREMONT        MOCLDY    56  33  41 CALM      29.72S
TEKAMAH        MOCLDY    56  32  40 CALM      29.72R
WAYNE          CLEAR     49  39  66 NE5       29.72R
$$

NEZ050>053-065>068-078-088>093-280200-
SOUTHEAST NEBRASKA

CITY           SKY/WX    TMP DP  RH WIND       PRES   REMARKS
LINCOLN        CLOUDY    53  37  54 S5        29.73R
OMAHA EPPLEY   MOCLDY    57  32  38 NE3       29.72R
BEATRICE       DRIZZLE   53  44  73 S5        29.73R
FALLS CITY     CLOUDY    56  40  55 SW15      29.74R
NEBRASKA CITY  CLOUDY    56  27  33 CALM      29.73R
PLATTSMOUTH    CLOUDY    54  30  39 S3        29.73R
$$

NEZ044-045-051>053-067-280200-
OMAHA AREA

CITY           SKY/WX    TMP DP  RH WIND       PRES   REMARKS
OMAHA EPPLEY   MOCLDY    57  32  38 NE3       29.72R
BLAIR          MOCLDY    55  34  45 SE3       29.72R
FREMONT        MOCLDY    56  33  41 CALM      29.72S
MILLARD        CLOUDY    57  37  46 CALM      29.73R
OFFUTT AFB     CLOUDY    56  31  38 CALM      29.72R
PLATTSMOUTH    CLOUDY    54  30  39 S3        29.73R
WAHOO          CLOUDY    56  33  42 S6        29.71S
$$




USA.gov is the U.S. government's official web portal to all federal, state and local government web resources and services.